Location: Unspecified
(43.3830°N, 0.0000°E)
Time: 05:20:52
(UTC+00:00)

Transit 2A - Pass Details

Date: 22 June 2019
Orbit: 597 x 962 km, 66.7° (Epoch: 21 August)

Event Time Altitude Azimuth Distance (km) Brightness Sun altitude
Exits shadow 22:15:05 12° 100° (E) 2,585 8.4 -18.8°
Drops below altitude 10° 22:16:59 10° 82° (E) 2,695 8.6 -19.0°
Sets 22:21:34 0° 52° (NE) 3,620 9.7 -19.3°
